Olympia, WA
on Friday, November 16, 2012

Friday
Previous Day Next Day
Daily Summary
 ActualAverageRecord
Temperature
Mean Temperature °F 43°F  
Max Temperature 47°F 50°F 64°F (1949)
Min Temperature 38°F 36°F 16°F (2014)
Degree Days
Heating Degree Days 22 22  
Month to date heating degree days 303 322  
Since 1 July heating degree days 1081 1116  
Cooling Degree Days 0 0  
Month to date cooling degree days 0 0  
Year to date cooling degree days 82 106  
Moisture
Dew Point 40°F   
Average Humidity 95    
Maximum Humidity 100    
Minimum Humidity 89    
Precipitation
Precipitation 0.21 in 0.30 in 1.97 in (1956)
Month to date precipitation 2.57 4.37  
Year to date precipitation 43.27 38.28  
Wind
Wind Speed 2 mph   
Max Wind Speed 8 mph   
Max Gust Speed 10 mph   
Visibility 3 miles   
Events Fog , Rain   

Key: T is trace of precipitation, MM is missing value
Source: NWS Daily Summary
Time(PST)TemperatureDew PointHumidity Pressure Visibility Wind DirectionWind SpeedGust SpeedPrecipitationEvents Conditions
12:13 AM 37.4°F 37.4°F 100% 29.95 in 0.5 miles SSE 3.5 mph - N/A Fog Fog
12:54 AM 37.9°F 37.9°F 100% 29.95 in 0.5 miles Calm Calm - N/A Fog Fog
1:54 AM 37.9°F 37.9°F 100% 29.95 in 0.8 miles SSW 4.6 mph - N/A   Mist
2:26 AM 37.4°F 37.4°F 100% 29.94 in 1.5 miles SSW 4.6 mph - N/A   Overcast
2:43 AM 37.4°F 37.4°F 100% 29.93 in 1.0 miles SSW 3.5 mph - N/A   Overcast
2:54 AM 37.9°F 37.9°F 100% 29.94 in 0.8 miles SSW 3.5 mph - N/A   Overcast
3:05 AM 37.4°F 37.4°F 100% 29.93 in 1.5 miles SW 3.5 mph - N/A   Overcast
3:16 AM 37.4°F 37.4°F 100% 29.92 in 1.0 miles South 4.6 mph - N/A   Overcast
3:39 AM 37.4°F 37.4°F 100% 29.92 in 0.8 miles South 5.8 mph - N/A   Mist
3:54 AM 37.9°F 37.9°F 100% 29.92 in 0.5 miles SSW 4.6 mph - N/A Fog Fog
4:14 AM 37.4°F 37.4°F 100% 29.91 in 1.2 miles SSW 4.6 mph - N/A   Overcast
4:42 AM 37.4°F 37.4°F 100% 29.92 in 0.8 miles SSW 4.6 mph - N/A   Overcast
4:49 AM 37.4°F 37.4°F 100% 29.92 in 1.0 miles SW 3.5 mph - N/A   Overcast
4:54 AM 37.9°F 37.9°F 100% 29.92 in 0.8 miles SSW 3.5 mph - N/A   Overcast
5:05 AM 37.4°F 37.4°F 100% 29.92 in 1.0 miles Calm Calm - N/A   Overcast
5:21 AM 37.4°F 37.4°F 100% 29.92 in 0.8 miles South 4.6 mph - N/A   Overcast
5:28 AM 37.4°F 37.4°F 100% 29.91 in 1.5 miles SSW 4.6 mph - N/A   Overcast
5:54 AM 37.9°F 37.9°F 100% 29.92 in 1.0 miles SSW 3.5 mph - N/A   Overcast
6:15 AM 37.4°F 37.4°F 100% 29.91 in 2.0 miles Calm Calm - N/A   Overcast
6:30 AM 37.4°F 37.4°F 100% 29.91 in 4.0 miles Calm Calm - N/A   Overcast
6:54 AM 37.9°F 37.9°F 100% 29.91 in 4.0 miles Calm Calm - N/A   Overcast
7:43 AM 39.2°F 37.4°F 93% 29.91 in 2.5 miles WSW 3.5 mph - N/A   Overcast
7:54 AM 39.0°F 37.9°F 96% 29.91 in 3.0 miles WSW 3.5 mph - N/A   Overcast
8:54 AM 39.9°F 39.0°F 97% 29.92 in 4.0 miles WSW 3.5 mph - N/A   Overcast
9:54 AM 42.1°F 39.9°F 92% 29.92 in 7.0 miles WSW 4.6 mph - N/A   Mostly Cloudy
10:54 AM 43.0°F 39.9°F 89% 29.92 in 7.0 miles SW 3.5 mph - 0.00 in   Overcast
11:36 AM 44.6°F 41.0°F 87% 29.90 in 7.0 miles Calm Calm - N/A   Overcast
11:54 AM 45.0°F 42.1°F 90% 29.89 in 8.0 miles SSW 4.6 mph - N/A   Overcast
12:54 PM 46.0°F 44.1°F 93% 29.87 in 5.0 miles WSW 5.8 mph - 0.00 in Rain Light Rain
1:54 PM 46.0°F 44.1°F 93% 29.85 in 3.0 miles Calm Calm - 0.04 in Rain Light Rain
2:19 PM 44.6°F 44.6°F 100% 29.83 in 4.0 miles Calm Calm - 0.02 in Rain Light Rain
2:54 PM 46.0°F 44.1°F 93% 29.82 in 4.0 miles Calm Calm - 0.05 in Rain Light Rain
2:56 PM 44.6°F 44.6°F 100% 29.82 in 4.0 miles Calm Calm - 0.00 in Rain Light Rain
3:54 PM 46.0°F 44.1°F 93% 29.82 in 3.0 miles ENE 4.6 mph - 0.00 in   Overcast
4:06 PM 44.6°F 44.6°F 100% 29.81 in 2.5 miles East 4.6 mph - 0.01 in Rain Light Rain
4:50 PM 44.6°F 44.6°F 100% 29.80 in 4.0 miles Calm Calm - 0.03 in Rain Light Rain
4:54 PM 45.0°F 44.1°F 97% 29.81 in 4.0 miles Calm Calm - 0.03 in Rain Light Rain
5:54 PM 45.0°F 44.1°F 97% 29.78 in 3.0 miles Calm Calm - 0.03 in   Overcast
6:54 PM 45.0°F 44.1°F 97% 29.77 in 4.0 miles Calm Calm - N/A   Overcast
7:04 PM 44.6°F 44.6°F 100% 29.77 in 5.0 miles Calm Calm - N/A   Overcast
7:54 PM 45.0°F 44.1°F 97% 29.76 in 4.0 miles Calm Calm - 0.01 in Rain Light Rain
8:54 PM 45.0°F 44.1°F 97% 29.74 in 4.0 miles Calm Calm - 0.00 in Rain Light Rain
9:54 PM 44.1°F 44.1°F 100% 29.73 in 4.0 miles Calm Calm - 0.01 in Rain Light Rain
10:54 PM 45.0°F 44.1°F 97% 29.72 in 5.0 miles Calm Calm - 0.04 in Rain Light Rain
11:54 PM 45.0°F 44.1°F 97% 29.70 in 3.0 miles Calm Calm - 0.00 in Rain Light Rain
Moon Phase
Nov. 16 Nov. 20 Nov. 28 Dec. 06 Dec. 13
Sunrise:07:17 AM (PST) Moon Rise:10:19 AM (PST)11/16
Sunset:04:35 PM (PST) Moon Set:07:39 PM (PST)11/16

Copyright © 2014 The Weather Underground, Inc.